RH
74 61 53 58 46 28 26 20 18 17 16 16 16 18 23 38 50 54 63 76 78 75 72 34 42 35 22 26 26 28 30 31 32 33 34 32 36 35 30 29 27 28 31 33 34 36 34
75 71 69 61 51 30 30 26 22 22 20 20 21 24 33 44 57 70 68 66 64 58 33 41 46 30 22 28 28 30 34 38 42 43 41 39 37 37 36 31 28 30 33 33 33 34 35
69 69 71 66 62 33 31 32 29 26 26 24 23 26 28 34 41 45 45 40 37 33 44 55 41 27 22 28 30 32 35 41 48 49 46 46 43 42 38 34 32 29 33 36 32 37 36
66 80 71 72 75 40 31 32 33 36 31 31 27 27 27 28 30 31 33 34 37 54 60 51 34 25 23 28 31 35 37 42 50 55 53 48 49 50 44 39 36 33 33 29 32 36 34
48 94 85 76 86 58 33 32 33 35 42 37 33 32 33 32 34 38 47 57 64 70 62 43 30 24 24 28 34 35 38 43 49 58 57 49 52 49 47 43 40 38 37 41 34 36 32
51 74 97 85 84 88 45 36 30 32 36 40 43 41 43 42 45 54 76 77 79 73 59 40 31 25 26 31 33 37 39 40 45 52 64 62 53 56 56 51 50 40 44 44 43 37 31
71 52 91 91 93 85 87 44 38 32 32 33 38 45 49 51 53 61 78 85 88 74 64 43 33 28 26 32 36 35 42 41 42 45 50 57 61 67 57 48 52 49 44 46 52 40 31
97 69 65 93 88 89 92 90 46 43 38 36 38 39 47 51 51 58 76 87 83 74 64 52 40 34 29 29 39 40 40 40 42 43 46 53 58 62 56 54 49 47 49 50 51 44 31
100 90 73 70 91 76 89 92 89 47 48 43 46 46 47 48 48 51 57 74 72 67 62 54 48 40 33 30 30 37 41 40 41 42 43 45 54 64 60 57 54 56 45 50 45 49 38
100 100 95 71 70 93 79 94 93 89 51 50 52 56 57 54 56 53 53 56 62 61 57 54 52 47 40 35 32 30 33 39 42 41 38 38 50 56 60 56 59 51 58 50 51 42 41
94 100 100 100 73 70 95 94 99 98 93 59 58 59 57 67 61 61 60 57 53 49 50 49 48 48 41 37 33 33 32 32 34 37 38 37 41 47 48 67 56 52 59 58 52 56 44
91 97 89 100 100 71 78 99 95 97 98 100 90 60 66 63 68 67 66 64 63 60 56 56 56 52 47 42 38 36 34 34 35 34 35 41 38 50 61 71 75 62 60 68 63 54 40
34 94 96 79 93 93 93 94 100 97 97 98 100 98 92 69 64 72 74 79 81 79 81 86 92 87 75 57 48 44 45 43 38 33 34 36 43 42 47 61 81 85 69 61 62 67 57
22 36 98 87 78 99 97 100 100 100 100 96 99 97 92 99 99 96 75 74 76 80 79 81 86 86 85 80 71 62 54 54 52 48 43 40 43 43 49 50 51 71 86 71 59 65 60
23 22 65 100 77 79 98 98 88 98 100 100 100 100 100 100 99 99 97 98 100 98 93 86 79 79 79 80 81 80 78 73 64 55 49 49 45 44 47 46 48 50 64 79 64 50 50
22 23 26 76 100 79 85 100 100 100 92 94 94 96 89 87 96 99 100 100 100 98 91 90 91 89 94 95 92 95 89 82 83 83 76 61 46 54 58 54 49 46 48 51 49 40 42
24 24 22 35 89 98 95 92 100 100 100 100 100 100 100 90 92 100 100 100 100 99 92 82 73 68 69 72 74 75 75 78 83 85 84 84 72 68 70 66 58 61 59 54 48 44 38
29 26 24 22 34 92 100 99 89 94 97 100 100 100 100 98 93 95 96 100 100 92 82 88 84 80 70 70 74 69 63 60 58 61 60 60 58 65 78 81 81 78 78 71 57 47 47
48 34 28 23 22 28 76 92 91 96 97 94 98 97 98 100 92 85 80 74 73 74 70 64 60 60 60 60 59 62 60 56 54 49 45 47 45 42 42 41 42 50 62 67 71 71 60
80 45 33 27 24 24 44 86 100 100 100 100 100 98 99 97 95 95 91 87 87 79 74 69 69 74 75 75 70 62 62 61 56 46 40 38 39 43 40 41 37 37 33 39 44 45 48
70 75 41 32 31 32 32 28 30 63 98 100 97 100 100 97 90 90 88 86 87 82 77 86 88 83 78 70 68 70 63 56 55 46 39 32 29 31 33 35 31 30 33 38 41 39 36
43 75 73 47 36 42 43 37 41 41 38 42 86 89 86 84 83 89 100 100 99 95 90 89 92 85 73 71 77 91 82 73 77 60 46 25 21 18 21 21 22 21 22 30 34 40 39
49 56 75 54 56 48 50 52 50 44 42 40 44 45 42 62 77 93 97 96 92 92 95 96 91 88 84 72 63 61 60 52 40 36 32 25 19 17 14 13 13 12 13 14 16 20 24
63 63 63 62 61 58 61 74 69 57 51 69 83 85 81 92 89 90 83 82 78 78 78 74 64 58 59 61 54 44 35 29 24 20 16 16 14 11 10 9 8 8 9 9 9 10 13
76 68 68 70 70 78 70 70 68 74 79 71 76 94 91 90 99 91 77 75 64 62 76 81 68 59 48 39 33 26 21 19 17 15 15 13 12 12 10 10 9 10 9 9 8 9 9
93 88 76 84 83 76 72 96 97 84 80 95 99 98 99 96 89 81 89 84 74 60 61 62 54 45 38 31 23 20 20 23 20 14 13 12 11 10 9 9 9 10 10 9 8 9 9
79 88 91 87 87 98 100 97 94 97 99 97 91 84 84 89 100 92 78 68 62 66 63 53 55 50 39 26 20 23 25 20 16 14 12 9 7 7 7 7 7 7 7 7 7 8 9
91 88 89 94 100 100 98 100 100 92 87 80 76 90 86 82 82 75 74 64 55 51 52 52 46 38 28 22 27 25 17 14 12 10 9 8 7 7 6 6 6 7 8 8 8 9 10
100 100 100 100 100 100 100 100 94 80 81 78 77 81 77 78 66 59 56 50 52 52 48 41 35 28 24 27 21 14 12 11 11 10 9 9 9 9 8 8 8 8 8 9 9 9 10
Wind_Speed
31 31 29 28 29 27 24 21 15 12 14 19 23 28 33 36 33 31 29 29 29 30 30 30 32 32 32 35 42 39 35 33 32 31 30 29 28 27 26 27 28 28 29 29 29 27 27
32 29 28 27 27 25 22 18 14 11 12 17 22 28 32 34 33 31 31 31 31 31 31 32 33 33 33 38 42 40 37 34 33 33 33 32 30 29 31 30 32 31 33 34 32 30 32
35 32 29 27 26 25 21 17 14 12 12 15 21 27 31 34 34 34 34 34 32 32 32 33 34 34 34 40 43 41 38 36 35 35 36 36 35 35 36 35 35 35 36 37 35 36 38
34 33 31 27 25 24 22 19 15 13 14 16 19 23 26 29 30 32 32 32 32 32 32 33 34 34 35 39 44 41 40 39 38 37 38 39 40 39 40 38 39 39 40 40 39 42 42
32 31 32 29 25 22 23 21 19 16 15 16 20 23 25 27 28 30 31 31 31 31 32 33 34 34 35 39 45 45 43 42 41 40 41 43 43 41 42 43 44 44 41 41 44 46 45
29 33 32 31 27 24 22 24 22 21 19 18 20 22 24 27 29 31 32 32 32 33 33 34 34 34 35 42 48 48 46 44 45 45 45 44 45 47 50 51 48 44 45 46 48 49 47
33 30 34 33 30 26 22 23 25 24 23 23 23 24 25 27 30 31 32 33 35 36 36 36 36 36 36 40 47 51 50 49 48 50 51 47 47 56 59 53 53 51 49 48 53 53 50
38 34 32 36 33 29 25 22 24 27 26 26 26 27 28 30 31 33 35 36 38 38 39 38 39 38 39 40 47 52 54 54 54 56 54 53 51 59 57 57 56 56 57 55 57 59 51
39 40 35 35 37 34 29 26 24 26 29 29 29 30 30 31 33 35 38 40 40 41 42 42 42 42 43 44 45 51 57 58 59 59 60 58 58 62 61 62 59 59 60 63 62 64 59
44 41 40 35 38 38 35 31 29 25 27 30 32 32 34 34 35 35 37 40 42 43 44 46 45 46 47 49 50 52 55 60 63 65 65 60 65 67 66 64 69 60 67 67 66 68 64
52 47 43 41 37 39 40 38 33 30 27 28 32 33 36 39 39 39 40 41 42 44 44 47 49 49 51 53 55 56 58 58 62 64 66 68 70 71 69 72 74 66 71 71 72 71 69
60 54 51 45 41 37 38 41 39 35 31 30 29 32 35 37 39 43 46 46 46 47 47 47 48 51 54 56 57 60 60 61 65 66 67 71 72 74 76 77 80 78 78 80 78 77 73
57 61 56 52 46 41 37 38 42 42 39 38 35 33 32 34 38 41 43 46 48 51 51 51 54 56 58 57 58 59 61 64 68 67 67 67 73 77 81 83 85 88 87 88 87 84 80
56 59 62 58 53 47 42 40 40 41 42 42 41 40 39 37 38 38 41 45 47 49 53 54 56 58 59 60 62 64 66 68 69 70 68 71 70 76 81 86 88 91 96 95 97 96 93
55 57 61 63 59 54 48 45 43 41 40 42 42 43 43 43 43 44 44 43 44 47 50 53 57 59 61 63 66 66 69 72 74 76 76 77 72 76 82 85 89 90 96 104 105 103 103
55 56 60 63 63 59 56 52 49 46 46 44 43 44 43 44 44 44 43 44 47 51 54 55 57 57 60 63 66 70 74 76 79 81 83 85 81 82 83 87 88 94 96 100 103 103 105
57 56 58 61 64 64 62 61 58 54 53 52 51 50 50 52 51 52 52 53 56 57 58 59 60 61 64 67 70 72 74 77 79 84 88 90 92 83 88 90 94 99 101 102 105 107 105
55 56 57 58 62 67 67 66 65 63 59 59 59 58 58 59 59 61 62 62 63 65 65 67 68 70 72 74 76 79 82 84 84 89 94 95 98 90 89 92 101 104 108 109 112 110 110
49 52 55 56 58 62 67 67 66 66 65 65 65 65 64 64 65 67 69 70 73 75 75 75 76 79 82 85 87 87 90 92 94 96 99 100 103 102 95 96 101 109 111 112 115 117 116
45 49 51 54 55 57 60 64 69 68 68 69 69 70 70 71 72 74 75 76 78 80 82 84 85 85 86 87 91 92 93 96 99 102 102 103 104 108 106 103 105 109 113 114 118 120 119
44 47 48 51 53 52 53 58 61 67 72 75 74 74 74 76 78 80 82 83 84 86 85 85 84 87 90 92 94 97 99 100 102 104 106 105 105 107 107 110 115 114 113 116 120 122 123
40 48 44 48 48 49 51 51 53 57 62 67 73 77 78 78 80 80 80 79 79 82 84 86 88 91 95 95 95 96 101 105 106 109 111 108 104 107 105 111 115 115 113 116 120 125 127
39 41 45 46 47 49 49 50 51 55 56 59 61 64 66 67 68 70 72 75 78 80 82 85 88 91 94 95 97 99 102 105 107 108 112 111 113 115 109 113 114 111 111 113 116 121 127
37 41 45 45 45 47 47 48 48 52 53 53 54 58 60 62 66 69 73 76 80 81 83 85 88 89 91 93 99 105 108 109 109 109 108 110 113 114 109 111 109 108 107 107 109 112 117
37 41 43 44 44 45 48 47 49 49 52 56 57 59 62 61 62 67 68 72 78 80 82 86 90 92 95 99 102 106 107 105 105 104 103 102 102 102 101 100 99 100 101 101 102 105 108
38 43 44 44 44 45 44 44 48 52 53 54 56 59 61 64 67 68 72 76 80 85 87 90 92 96 100 103 104 102 101 96 99 98 95 93 93 94 92 92 91 94 96 97 98 100 102
34 37 41 42 43 42 43 45 46 50 54 59 63 64 66 66 70 75 77 80 83 86 90 93 96 99 103 105 104 99 98 94 92 92 90 88 85 83 82 84 82 83 87 90 91 93 96
27 32 35 35 36 40 43 48 54 57 62 65 67 68 73 73 75 79 82 84 85 85 89 95 99 103 106 104 99 95 89 87 87 84 81 80 80 79 76 76 75 77 77 79 82 85 89
26 31 36 42 47 50 52 58 62 65 66 69 72 75 76 78 82 84 85 85 90 93 95 99 102 104 99 94 90 88 84 83 78 75 74 71 70 69 69 70 69 69 70 72 75 77 80
Wind_Direction
277 280 282 283 291 294 292 285 280 265 235 224 215 214 217 220 226 230 227 229 232 235 237 234 220 222 223 221 212 210 209 210 213 214 216 216 218 220 219 221 219 219 220 221 223 223 224
274 277 278 281 288 288 288 284 276 262 240 222 214 211 213 218 224 226 228 229 232 235 230 221 220 223 223 220 213 212 212 215 217 220 221 221 223 226 228 225 226 224 226 226 227 229 233
271 273 274 281 286 286 281 277 270 255 236 223 216 212 215 219 222 224 227 230 229 224 219 221 224 224 227 219 214 213 215 219 222 224 223 224 228 230 232 230 231 232 229 232 230 233 237
268 267 267 275 280 283 273 269 260 253 241 229 222 219 216 218 219 220 220 220 219 217 219 223 228 228 232 223 216 217 219 222 224 228 229 227 230 234 236 235 236 235 236 233 234 238 238
267 259 263 265 271 280 270 265 255 248 242 236 228 223 219 218 217 217 218 217 217 220 225 227 231 233 236 229 220 221 222 225 228 229 231 231 232 235 239 239 238 238 239 242 241 238 239
275 257 257 257 261 269 271 263 259 248 242 235 231 226 225 221 219 218 219 220 221 225 229 232 234 237 238 232 225 225 227 228 231 233 235 234 236 239 241 241 242 240 241 244 247 244 240
266 269 253 253 253 258 266 262 259 255 246 239 235 230 227 224 224 223 223 225 228 229 231 234 238 239 240 239 234 229 232 234 235 236 236 235 237 242 242 241 243 243 243 245 248 247 244
256 260 256 250 250 251 256 263 254 252 250 245 239 235 231 230 230 229 228 231 233 235 236 238 239 241 244 243 241 238 236 236 238 239 239 238 239 246 245 245 245 245 245 248 250 250 244
246 253 256 251 249 249 250 256 259 251 248 246 243 240 237 235 233 233 232 233 234 237 240 239 242 245 245 245 245 244 241 241 242 243 242 241 243 249 248 248 246 247 247 249 248 253 250
237 246 252 254 246 246 249 250 254 257 252 248 245 242 241 239 238 237 238 238 239 240 242 244 244 247 247 249 248 248 246 244 245 246 247 244 248 250 252 254 251 247 252 250 252 251 252
237 237 244 250 252 246 246 248 249 250 252 251 247 244 244 242 242 241 239 241 242 244 246 248 250 250 251 252 252 252 252 251 249 250 250 250 250 253 254 255 257 253 255 254 252 254 251
238 237 238 240 246 249 246 245 248 248 247 252 252 247 246 245 244 244 242 243 244 245 246 249 254 254 252 250 252 255 257 255 254 253 252 252 253 254 255 257 258 256 255 257 256 255 251
242 238 238 239 240 244 247 247 246 248 247 247 248 251 251 250 248 247 247 247 247 249 250 250 251 254 256 257 257 256 257 257 258 259 259 257 257 257 256 256 258 259 258 257 257 258 256
246 241 238 239 237 239 243 245 248 246 247 249 250 251 251 251 251 250 250 251 253 252 252 250 252 255 257 259 260 260 260 260 259 257 256 259 260 261 261 260 258 258 259 260 260 257 256
245 245 240 239 240 237 238 243 246 246 247 246 250 251 252 253 254 253 253 254 255 254 255 257 256 255 255 257 260 261 261 262 263 262 261 258 255 257 260 262 263 262 262 260 262 260 257
243 245 243 240 240 238 239 241 243 245 246 248 249 248 247 249 250 252 255 258 260 258 256 256 257 257 259 261 261 262 264 263 263 264 263 262 258 258 259 261 262 263 262 263 264 262 262
244 243 244 242 240 240 242 244 244 246 246 248 250 251 252 251 251 253 256 261 262 262 262 262 263 264 263 262 263 263 264 263 265 264 263 262 262 259 261 263 263 262 262 262 263 265 266
244 241 243 243 242 241 242 245 246 246 248 251 252 254 256 257 259 260 261 261 264 264 263 265 266 267 268 268 267 268 270 270 268 268 269 268 265 260 258 262 264 264 264 264 265 265 265
245 241 242 244 245 245 244 245 248 250 251 253 254 256 257 259 260 263 265 266 267 269 268 267 267 269 271 272 272 271 272 271 271 270 269 268 269 268 264 262 261 262 262 264 266 266 266
243 242 240 243 246 247 248 248 248 250 252 254 257 259 261 262 263 264 265 268 270 272 273 274 274 274 274 273 273 273 273 273 273 272 270 269 268 268 267 264 262 263 265 264 264 264 264
241 242 241 240 245 245 247 249 250 252 253 254 257 260 262 264 266 267 268 269 270 272 274 274 274 274 274 275 275 276 276 275 275 274 272 270 269 268 267 266 265 264 263 264 265 266 266
246 240 239 239 241 241 242 249 249 251 253 255 257 260 263 265 266 269 270 272 272 273 273 273 274 275 276 276 276 276 276 276 276 276 276 275 274 271 270 269 266 266 266 263 262 263 264
248 241 238 240 239 244 246 248 251 253 257 258 260 262 264 266 267 269 269 270 272 272 273 274 275 276 277 277 278 278 276 275 275 276 277 278 278 277 275 273 272 270 268 265 263 262 263
249 243 240 241 242 243 245 248 253 255 256 258 260 262 264 265 266 268 269 271 272 272 273 274 274 274 276 277 278 277 278 279 280 280 280 278 277 277 276 275 274 273 270 267 265 263 262
247 246 246 245 247 248 249 253 258 256 257 258 259 260 264 268 268 270 273 275 274 275 277 278 278 280 281 281 281 280 281 283 282 280 279 278 277 276 274 273 274 273 271 268 266 264 262
249 249 249 251 252 254 257 261 259 258 259 259 261 263 264 266 271 275 275 276 277 279 280 280 284 286 286 285 285 288 290 287 285 283 282 279 277 275 274 273 272 270 269 268 267 266 265
256 252 253 259 260 259 260 264 268 268 265 262 261 264 266 270 274 275 277 280 281 283 285 287 287 287 287 289 292 294 292 290 289 288 286 284 281 278 277 276 273 269 268 269 269 266 266
259 258 264 266 265 265 265 265 264 266 267 267 270 270 271 272 276 278 279 284 287 287 287 285 285 286 288 292 296 294 292 291 290 288 286 284 283 281 279 276 274 273 271 269 268 267 267
261 263 265 265 263 262 266 269 267 267 270 270 272 273 274 276 279 281 285 286 288 286 285 284 285 287 292 295 294 293 293 292 290 289 287 285 284 283 282 279 277 274 272 270 268 267 266